Fremont, NE

9:45 PM CDT on September 24, 2016 (GMT -0500)
Fremont Municipal

Weather History for KFET - November, 2012

Change the Weather History Date:

Friday, November 9, 2012

  Actual Average Record
Temperature  
Mean Temperature 49 °F -  
Max Temperature 64 °F 50 °F 71 °F (1999)
Min Temperature 34 °F 31 °F 17 °F (1981)
Degree Days  
Heating Degree Days 16    
Moisture  
Dew Point 43 °F    
Average Humidity 80    
Maximum Humidity 99    
Minimum Humidity 59    
Precipitation  
Precipitation 0.00 in - - ()
Sea Level Pressure  
Sea Level Pressure 29.77 in    
Wind  
Wind Speed 3 mph (East)    
Max Wind Speed 14 mph    
Max Gust Speed 17 mph    
Visibility 10 miles    
Events      
Averages and records for this station are not official NWS values.
T = Trace of Precipitation, MM = Missing Value Source: NWS Daily Summary

Daily Weather History Graph

Daily Weather History Graph

Search for Another Location

Airport or City:

Trip Planner

Search our weather history database for the weather conditions in past years. The results will help you decide how hot, cold, wet, or windy it might be!

Date:

Astronomy

Nov. 09, 2012 Rise Set
Actual Time 7:08 AM CST 5:11 PM CST
Civil Twilight 6:38 AM CST 5:40 PM CST
Nautical Twilight 6:05 AM CST 6:13 PM CST
Astronomical Twilight 5:32 AM CST 6:46 PM CST
Moon 2:04 AM CST (11/9) 2:28 PM CST (11/9)
Length of Visible Light 11h 02m
Length of Day
10h 03m
Waning Crescent, 23% of the Moon is Illuminated
Nov 9
Waning Crescent
Nov 13
New
Nov 20
First Quarter
Nov 28
Full
Dec 6
Last Quarter

Hourly Weather History & Observations

Time (CST) Temp. Windchill Dew Point Humidity Pressure Visibility Wind Dir Wind Speed Gust Speed Precip Events Conditions
12:15 AM 39.6 °F - 34.3 °F 82% 29.86 in 10.0 mi Calm Calm - N/A   Clear
12:35 AM 38.7 °F - 33.8 °F 83% 29.86 in 10.0 mi Calm Calm - N/A   Clear
12:55 AM 37.6 °F - 33.4 °F 85% 29.85 in 10.0 mi Calm Calm - N/A   Clear
1:15 AM 37.2 °F - 33.8 °F 87% 29.85 in 10.0 mi Calm Calm - N/A   Clear
1:35 AM 37.6 °F - 34.0 °F 87% 29.85 in 10.0 mi Calm Calm - N/A   Clear
1:55 AM 35.6 °F - 32.7 °F 89% 29.85 in 10.0 mi Calm Calm - N/A   Clear
2:15 AM 35.6 °F 32.8 °F 33.4 °F 92% 29.85 in 10.0 mi NNW 3.5 mph - N/A   Clear
2:35 AM 38.1 °F - 35.2 °F 89% 29.85 in 10.0 mi Calm Calm - N/A   Clear
2:55 AM 37.2 °F - 34.0 °F 88% 29.85 in 10.0 mi Calm Calm - N/A   Clear
3:35 AM 35.6 °F - 33.1 °F 91% 29.85 in 10.0 mi Calm Calm - N/A   Clear
3:55 AM 37.2 °F - 34.5 °F 90% 29.84 in 10.0 mi Calm Calm - N/A   Clear
4:15 AM 35.4 °F - 34.0 °F 94% 29.85 in 10.0 mi Calm Calm - N/A   Clear
4:35 AM 36.9 °F - 34.9 °F 93% 29.85 in 10.0 mi Calm Calm - N/A   Clear
4:55 AM 35.6 °F - 34.2 °F 94% 29.86 in 10.0 mi Calm Calm - N/A   Clear
5:15 AM 36.9 °F - 35.4 °F 95% 29.86 in 10.0 mi Calm Calm - N/A   Clear
5:55 AM 35.8 °F - 34.9 °F 97% 29.86 in 10.0 mi Calm Calm - N/A   Clear
6:15 AM 36.1 °F - 35.1 °F 96% 29.85 in 10.0 mi Calm Calm - N/A   Clear
6:35 AM 36.0 °F - 35.1 °F 97% 29.85 in 10.0 mi Calm Calm - N/A   Clear
6:55 AM 36.5 °F - 35.6 °F 97% 29.86 in 10.0 mi Calm Calm - N/A   Clear
7:35 AM 34.7 °F 30.6 °F 34.5 °F 99% 29.87 in 5.0 mi NNW 4.6 mph - N/A   Clear
7:55 AM 35.6 °F - 34.9 °F 97% 29.86 in 7.0 mi Calm Calm - N/A   Clear
8:15 AM 35.6 °F 30.7 °F 35.1 °F 98% 29.88 in 5.0 mi NW 5.8 mph - N/A   Clear
8:35 AM 36.0 °F 33.3 °F 35.6 °F 99% 29.87 in 5.0 mi NNW 3.5 mph - N/A   Clear
8:55 AM 36.5 °F 32.7 °F 35.6 °F 97% 29.86 in 7.0 mi North 4.6 mph - N/A   Clear
9:15 AM 37.6 °F 34.0 °F 36.5 °F 96% 29.86 in 7.0 mi North 4.6 mph - N/A   Clear
9:35 AM 39.2 °F 35.9 °F 37.6 °F 94% 29.85 in 10.0 mi North 4.6 mph - N/A   Clear
9:55 AM 42.4 °F 38.8 °F 39.0 °F 88% 29.86 in 10.0 mi North 5.8 mph - N/A   Clear
10:15 AM 45.1 °F 42.0 °F 39.7 °F 81% 29.84 in 10.0 mi NNE 5.8 mph - N/A   Clear
10:55 AM 50.7 °F - 41.9 °F 72% 29.84 in 10.0 mi East 6.9 mph - N/A   Clear
11:15 AM 51.8 °F - 42.1 °F 69% 29.82 in 10.0 mi ENE 6.9 mph - N/A   Clear
11:35 AM 53.6 °F - 43.0 °F 67% 29.81 in 10.0 mi NE 8.1 mph - N/A   Clear
11:55 AM 54.7 °F - 43.2 °F 65% 29.80 in 10.0 mi East 6.9 mph - N/A   Clear
12:15 PM 55.6 °F - 43.5 °F 64% 29.79 in 10.0 mi East 5.8 mph - N/A   Clear
12:35 PM 57.0 °F - 43.9 °F 61% 29.77 in 10.0 mi East 6.9 mph - N/A   Clear
12:55 PM 58.1 °F - 44.8 °F 61% 29.77 in 10.0 mi East 5.8 mph - N/A   Clear
1:15 PM 59.5 °F - 45.1 °F 59% 29.77 in 10.0 mi East 4.6 mph - N/A   Clear
1:35 PM 59.9 °F - 45.7 °F 59% 29.76 in 10.0 mi East 5.8 mph - N/A   Scattered Clouds
1:55 PM 60.3 °F - 46.6 °F 61% 29.75 in 10.0 mi ESE 5.8 mph - N/A   Overcast
2:15 PM 60.6 °F - 46.4 °F 59% 29.74 in 10.0 mi ESE 3.5 mph - N/A   Overcast
2:35 PM 61.7 °F - 47.7 °F 60% 29.73 in 10.0 mi SE 5.8 mph - N/A   Mostly Cloudy
2:55 PM 63.0 °F - 48.4 °F 59% 29.72 in 10.0 mi SE 6.9 mph - N/A   Mostly Cloudy
3:15 PM 63.7 °F - 49.3 °F 59% 29.72 in 10.0 mi SE 13.8 mph 17.3 mph N/A   Mostly Cloudy
3:35 PM 63.7 °F - 49.1 °F 59% 29.71 in 10.0 mi ESE 9.2 mph - N/A   Clear
3:55 PM 64.0 °F - 49.8 °F 60% 29.71 in 10.0 mi ESE 12.7 mph 16.1 mph N/A   Clear
4:15 PM 63.5 °F - 50.4 °F 62% 29.71 in 10.0 mi ESE 11.5 mph - N/A   Clear
4:35 PM 62.8 °F - 50.4 °F 64% 29.70 in 10.0 mi SE 9.2 mph - N/A   Clear
4:55 PM 61.7 °F - 50.2 °F 66% 29.71 in 10.0 mi East 6.9 mph - N/A   Clear
5:15 PM 60.8 °F - 50.0 °F 68% 29.70 in 10.0 mi East 5.8 mph - N/A   Clear
5:35 PM 59.7 °F - 49.6 °F 69% 29.70 in 10.0 mi ENE 5.8 mph - N/A   Clear
5:55 PM 58.6 °F - 49.3 °F 71% 29.70 in 10.0 mi ENE 5.8 mph - N/A   Clear
6:15 PM 57.7 °F - 49.1 °F 73% 29.71 in 10.0 mi ENE 5.8 mph - N/A   Clear
6:35 PM 56.5 °F - 49.1 °F 76% 29.70 in 10.0 mi ENE 6.9 mph - N/A   Clear
6:55 PM 56.3 °F - 48.7 °F 76% 29.70 in 10.0 mi ENE 4.6 mph - N/A   Clear
7:15 PM 55.4 °F - 48.7 °F 78% 29.70 in 10.0 mi ENE 5.8 mph - N/A   Clear
7:35 PM 55.8 °F - 49.3 °F 79% 29.70 in 10.0 mi ENE 3.5 mph - N/A   Scattered Clouds
7:55 PM 55.6 °F - 49.1 °F 79% 29.69 in 10.0 mi ENE 5.8 mph - N/A   Mostly Cloudy
8:15 PM 54.7 °F - 49.1 °F 81% 29.68 in 10.0 mi ENE 5.8 mph - N/A   Scattered Clouds
8:35 PM 56.3 °F - 50.2 °F 80% 29.68 in 10.0 mi East 6.9 mph - N/A   Clear
8:55 PM 56.5 °F - 50.5 °F 80% 29.67 in 10.0 mi East 5.8 mph - N/A   Scattered Clouds
9:15 PM 56.8 °F - 51.3 °F 82% 29.67 in 10.0 mi East 6.9 mph - N/A   Scattered Clouds
9:35 PM 57.2 °F - 51.8 °F 82% 29.67 in 10.0 mi East 6.9 mph - N/A   Clear
9:55 PM 58.1 °F - 53.6 °F 85% 29.65 in 10.0 mi ESE 9.2 mph - N/A   Clear
10:15 PM 59.4 °F - 54.9 °F 85% 29.65 in 10.0 mi ESE 10.4 mph - N/A   Clear
10:35 PM 59.9 °F - 55.4 °F 85% 29.64 in 10.0 mi ESE 10.4 mph - N/A   Clear
10:55 PM 59.7 °F - 55.6 °F 86% 29.63 in 10.0 mi ESE 10.4 mph - N/A   Clear
11:15 PM 60.1 °F - 55.9 °F 86% 29.62 in 10.0 mi ESE 10.4 mph - N/A   Clear
11:35 PM 59.9 °F - 56.3 °F 88% 29.62 in 10.0 mi SE 11.5 mph - N/A   Clear
11:55 PM 61.0 °F - 56.7 °F 86% 29.61 in 10.0 mi SE 13.8 mph - N/A   Clear